Wetbulb
54.77 51.64 51.21 55.58 57.02 56.60 56.33 55.22 55.05 56.46 58.15 55.91 57.21 58.32 61.98 63.26 62.96 62.79 63.16 62.48 63.20 63.46 64.12 65.57 65.45 65.07 64.76 63.79 63.12 62.63 61.00 61.13 59.61 58.30 56.95 57.01 56.37 58.01 57.43 56.19 55.35 54.78 54.10 53.57
52.61 50.24 54.82 57.85 57.64 56.16 55.22 54.20 53.88 57.40 60.39 58.86 55.99 55.83 60.34 62.93 62.73 62.92 62.96 62.75 62.98 63.34 63.65 64.80 63.95 64.45 63.82 62.66 62.86 61.89 60.88 60.10 58.96 58.80 59.13 59.02 60.35 57.98 56.71 56.11 55.66 54.50 54.36 54.09
50.72 52.64 55.24 55.36 55.44 54.72 54.94 54.13 54.38 52.53 58.36 59.44 56.68 53.62 56.60 62.68 64.02 63.85 64.33 64.55 63.96 63.08 62.67 63.72 63.33 63.41 62.63 62.24 61.33 60.54 60.22 59.99 59.04 59.25 59.48 57.94 60.06 57.28 53.88 54.11 52.90 54.13 53.93 53.45
51.32 55.39 54.13 53.45 53.25 55.11 52.26 56.17 55.44 53.16 51.87 48.87 56.60 49.10 56.64 60.05 61.83 62.66 63.25 63.69 63.36 63.62 63.69 63.74 63.33 62.16 62.08 61.18 61.14 60.55 59.51 59.54 58.57 58.76 57.62 56.48 54.90 52.49 52.88 52.58 53.86 53.61 54.80 53.92
49.94 52.00 52.29 51.62 52.51 54.61 52.15 54.71 53.14 53.05 51.43 51.39 52.25 50.28 54.03 59.52 59.83 60.84 62.66 63.55 63.57 63.98 63.01 63.56 63.00 62.50 62.30 61.41 60.32 59.69 59.53 58.98 59.42 58.44 57.47 54.53 53.72 53.74 53.80 54.58 55.22 56.26 55.22 54.46
52.31 55.39 53.89 52.72 53.60 53.63 54.50 52.97 52.75 53.28 51.50 46.78 52.35 50.71 51.15 57.52 59.69 61.44 63.10 63.17 62.99 63.26 63.24 63.29 63.23 62.15 61.71 61.16 59.65 58.04 58.44 58.42 59.04 58.48 56.92 56.01 53.98 54.14 52.95 54.12 52.83 53.18 53.24 53.67
50.09 51.10 53.48 53.37 50.54 52.89 52.24 50.96 45.46 45.13 46.38 44.86 53.35 50.15 50.61 56.49 62.83 63.09 62.86 62.35 63.05 63.01 62.32 60.78 60.57 60.65 60.75 60.05 58.10 56.43 57.51 57.07 58.01 57.59 56.30 55.73 55.40 55.80 54.96 54.27 53.12 53.83 53.20 52.84
46.37 45.13 51.17 53.09 51.03 50.07 51.35 51.33 47.37 43.67 44.53 47.88 53.75 48.73 52.29 62.04 62.88 64.46 65.07 63.08 62.89 62.76 61.81 61.56 61.98 60.95 60.38 59.05 56.84 56.10 56.14 56.36 57.05 56.42 55.86 56.25 56.04 54.17 54.50 55.35 54.70 54.02 53.67 53.53
47.64 47.34 53.69 53.35 53.57 53.96 52.64 50.22 54.46 52.40 53.16 48.89 51.02 53.53 59.96 61.46 61.12 63.06 63.15 63.08 62.52 61.36 62.36 62.13 62.16 61.02 59.67 57.77 56.10 55.65 56.09 55.77 56.74 55.55 55.73 55.29 55.81 55.75 55.48 56.63 56.60 54.83 55.86 54.65
51.66 48.05 52.99 52.77 54.14 54.23 54.54 56.55 51.31 52.45 45.89 44.31 48.92 50.44 51.06 55.22 59.79 61.41 62.16 62.59 62.79 61.90 61.59 61.60 60.61 60.07 59.06 56.98 56.04 56.50 56.34 55.86 56.22 55.48 55.10 54.65 55.19 55.51 56.31 56.77 55.29 55.25 55.64 55.67
52.25 52.47 51.77 52.90 50.90 50.64 52.74 52.05 54.76 55.55 51.99 46.85 44.34 47.74 57.07 58.64 61.44 60.91 62.67 62.78 62.24 61.78 61.36 60.32 60.05 59.42 57.87 56.48 55.24 55.65 55.88 55.83 55.97 54.92 55.45 54.97 54.95 54.88 56.61 55.87 54.94 55.27 54.35 54.97
53.56 55.71 50.34 51.87 54.31 55.60 54.09 53.56 54.58 50.86 50.39 50.38 50.37 49.83 60.39 61.60 62.60 63.10 62.34 62.24 62.26 61.68 61.12 60.49 59.75 57.97 56.51 55.32 54.92 55.27 55.81 55.56 55.75 55.14 54.90 54.51 54.95 55.17 56.09 55.80 55.55 54.68 54.80 53.19
55.58 53.33 48.50 51.29 53.27 55.29 52.49 53.56 55.23 57.31 53.46 50.14 48.47 50.45 59.86 60.99 61.97 62.92 61.62 61.76 61.58 61.32 60.53 60.22 58.78 57.22 56.06 54.91 55.12 54.90 55.71 55.56 56.01 54.85 54.49 55.25 55.23 54.77 55.48 54.79 54.52 55.81 54.55 54.54
59.24 56.59 53.11 49.19 51.48 54.53 51.99 52.63 54.05 55.45 52.51 51.76 51.63 51.78 56.56 59.12 59.79 61.30 61.72 62.24 61.72 60.74 60.10 59.39 58.12 57.62 56.59 55.47 54.64 54.93 55.48 56.21 55.89 54.93 54.64 54.04 54.69 54.71 55.16 54.22 55.48 54.22 54.45 54.61
58.94 54.82 53.23 53.11 53.71 55.25 53.62 52.46 52.19 52.14 53.99 51.23 52.68 53.17 57.25 59.88 60.18 61.15 62.50 62.09 61.12 60.11 59.28 58.64 57.93 57.11 56.32 55.43 55.06 55.46 55.91 56.31 56.11 54.19 53.67 54.19 55.71 55.73 54.87 54.94 54.56 55.67 55.27 53.43
60.50 54.50 54.64 52.40 54.66 55.13 52.71 54.16 54.10 53.84 54.06 53.49 53.84 53.87 59.23 60.73 61.50 61.18 61.61 61.22 60.27 59.59 59.03 58.60 58.48 57.20 56.11 55.69 54.96 55.24 55.55 56.05 55.64 54.08 53.37 54.63 54.94 54.50 54.20 55.26 55.50 55.49 54.24 53.98
59.09 55.11 55.62 49.78 53.94 53.55 50.10 53.24 53.78 54.23 55.10 54.46 51.87 56.12 59.26 58.29 59.64 60.99 61.58 61.26 60.35 60.09 59.53 58.68 58.42 57.89 57.43 56.66 56.49 55.50 56.14 56.76 54.77 54.36 53.43 54.01 54.35 53.86 53.75 54.77 55.73 55.13 54.85 54.66
58.70 58.38 55.97 52.54 53.41 44.19 53.11 58.03 57.07 55.30 55.89 56.27 56.34 57.43 57.84 59.01 60.67 61.41 62.40 61.54 61.21 61.27 60.16 59.32 58.48 58.26 57.44 57.36 56.61 56.64 56.73 55.80 54.79 54.24 53.44 53.58 54.25 53.91 54.42 54.77 55.58 55.80 55.11 53.71
61.46 59.70 53.07 51.29 48.41 50.30 51.39 53.05 54.77 53.57 53.87 57.05 56.23 57.81 57.64 59.16 59.92 59.68 62.11 62.99 62.97 62.14 61.36 60.25 59.60 58.39 57.82 56.89 56.68 55.73 55.17 55.17 54.21 53.55 53.24 54.13 53.91 53.46 54.74 54.50 55.31 55.93 54.66 53.92
60.00 62.47 56.90 52.64 47.76 42.49 53.45 56.75 58.16 57.10 50.40 58.38 58.08 58.69 57.88 58.39 53.50 56.62 62.67 63.15 62.63 62.30 61.16 59.84 58.93 57.63 56.99 57.01 57.19 55.57 54.92 54.69 54.25 53.60 54.08 54.11 54.87 54.82 54.25 55.66 55.65 55.76 54.74 53.18
55.06 56.75 53.05 50.34 48.91 50.73 56.81 57.63 58.49 49.01 54.06 61.93 61.84 60.90 60.05 57.42 60.33 62.28 62.86 62.11 62.37 61.01 60.09 59.42 58.04 56.58 56.89 56.85 56.50 55.26 55.64 55.12 55.93 55.10 54.66 54.31 54.56 55.51 53.76 56.28 55.77 55.21 53.72 53.45
54.44 53.02 51.50 52.95 49.34 46.89 57.92 57.00 53.64 62.22 63.30 63.00 62.22 61.89 61.03 61.20 61.29 61.11 61.37 60.83 60.71 59.58 58.18 57.46 56.54 56.33 56.91 57.24 56.57 55.51 54.24 56.55 56.25 55.08 54.18 54.05 54.58 54.78 53.12 55.00 55.13 55.35 53.45 53.45
53.01 56.54 54.28 54.34 52.40 54.90 60.49 63.26 64.70 65.30 62.78 61.50 61.98 62.23 62.23 60.32 59.88 60.25 59.56 60.30 59.83 59.02 57.56 56.88 55.99 56.15 56.41 57.19 56.75 54.44 55.05 54.96 55.51 54.65 54.11 54.33 54.11 54.79 54.85 55.30 54.23 51.52 50.93 52.92
57.95 62.08 56.33 55.27 55.61 55.27 59.95 63.40 62.74 62.68 62.24 62.28 62.89 62.52 62.30 60.34 60.09 59.34 59.59 59.08 58.46 57.10 56.62 56.76 56.36 55.12 54.75 55.90 56.05 55.54 55.15 54.92 55.00 53.32 54.03 54.38 54.00 53.98 54.89 54.91 54.14 52.62 51.25 50.85
57.71 59.36 57.72 58.60 61.05 61.27 62.05 62.35 61.97 61.90 62.04 61.83 62.15 61.88 60.64 59.90 59.15 59.36 58.68 58.54 57.10 56.67 56.56 57.09 56.79 55.37 55.00 55.65 55.86 55.93 55.28 55.52 54.07 53.92 53.39 54.09 53.74 53.86 53.82 53.70 52.01 53.28 54.59 50.11
57.55 56.34 56.91 56.36 62.61 61.87 62.13 62.77 62.37 60.83 60.66 61.11 60.93 59.92 60.49 60.33 59.15 59.03 58.19 58.03 57.36 56.42 56.77 56.68 57.48 56.64 55.94 56.01 55.79 56.44 56.68 55.54 54.52 53.57 52.39 53.39 52.79 52.51 52.37 52.14 53.22 47.43 44.89 44.02
MSLP
1003.50 1003.17 1002.42 1002.03 1001.83 1001.47 1002.04 1002.68 1004.39 1005.52 1005.66 1007.08 1003.76 1003.69 1004.74 1006.12 1007.06 1007.29 1007.85 1008.81 1010.00 1011.45 1012.73 1014.09 1015.63 1016.83 1017.82 1018.70 1019.19 1019.68 1019.95 1020.20 1019.85 1019.59 1019.58 1019.40 1019.47 1019.47 1019.70 1020.19 1020.80 1020.90 1020.85 1020.76
1002.88 1002.03 1002.01 1001.77 1001.56 1001.86 1001.93 1002.08 1001.85 1001.73 1001.93 1002.46 1002.34 1002.36 1002.80 1004.42 1005.70 1006.47 1007.06 1008.03 1009.60 1011.33 1012.65 1014.00 1015.81 1016.84 1018.01 1018.88 1019.42 1020.00 1020.29 1020.49 1020.39 1020.03 1019.97 1019.97 1019.69 1019.68 1020.09 1020.44 1020.84 1021.09 1020.90 1020.73
1001.74 1001.73 1002.05 1001.37 1000.97 1001.04 1001.19 1001.32 1001.29 1001.00 1001.10 1001.51 1001.66 1001.72 1001.86 1002.92 1004.68 1005.97 1006.61 1007.63 1009.38 1010.94 1012.50 1014.02 1015.55 1016.65 1017.58 1018.57 1019.39 1020.04 1020.38 1020.49 1020.72 1020.52 1020.33 1020.22 1019.59 1019.86 1020.60 1020.75 1021.11 1021.12 1020.98 1020.71
1001.51 1000.61 1000.62 1000.79 1000.31 1000.27 1000.22 1000.63 1000.94 1000.82 1000.59 1000.29 1000.74 1000.88 1000.75 1001.97 1003.92 1005.23 1006.09 1007.23 1009.08 1010.75 1012.51 1013.77 1015.02 1016.65 1017.39 1018.26 1019.26 1019.95 1020.40 1020.65 1020.78 1020.97 1020.92 1021.05 1020.59 1020.70 1021.21 1021.21 1021.22 1021.03 1020.84 1020.57
1000.58 1000.07 999.75 999.66 999.92 999.85 1000.08 1000.40 1000.41 1000.49 1000.63 1000.90 1000.85 1001.44 1002.11 1002.74 1003.60 1004.42 1005.38 1006.59 1008.45 1010.59 1012.39 1013.52 1014.72 1016.22 1017.06 1017.86 1018.84 1019.88 1020.41 1020.76 1020.99 1021.27 1021.47 1021.45 1021.49 1021.24 1021.34 1021.19 1021.07 1020.91 1020.68 1020.41
999.96 999.53 999.59 999.95 1000.19 1000.16 1000.44 1000.33 1000.41 1001.05 1001.32 1001.43 1002.53 1003.49 1004.87 1002.68 1002.87 1003.77 1004.74 1006.20 1008.41 1010.43 1012.26 1013.59 1014.77 1015.84 1016.44 1017.22 1018.30 1019.44 1020.23 1020.74 1020.99 1021.20 1021.59 1021.77 1021.67 1021.61 1021.51 1021.24 1020.93 1020.84 1020.57 1020.27
1000.18 999.56 999.57 1000.27 1000.68 1000.70 1000.36 1000.48 1000.56 1001.17 1001.45 1003.13 1004.64 1005.50 1004.20 1004.30 1002.31 1002.97 1004.36 1006.21 1008.42 1010.70 1012.23 1013.67 1014.56 1015.36 1016.04 1016.80 1017.80 1019.11 1019.86 1020.43 1020.84 1021.17 1021.61 1021.80 1021.70 1021.55 1021.38 1021.29 1021.07 1020.95 1020.70 1020.31
999.72 999.47 999.46 1000.00 1000.13 1000.02 1000.08 1000.44 1000.40 1000.69 1002.22 1002.21 1003.63 1004.25 1002.50 1001.58 1001.80 1002.26 1003.77 1006.47 1008.84 1010.42 1011.73 1012.91 1013.80 1014.76 1015.65 1016.80 1017.87 1018.62 1019.52 1020.04 1020.58 1021.17 1021.60 1021.82 1021.79 1021.63 1021.42 1021.34 1021.29 1021.07 1020.83 1020.59
999.21 998.87 998.36 998.78 999.42 999.80 999.68 999.85 1000.02 1000.40 1000.90 1001.21 1002.03 1003.94 1002.37 1003.10 1003.29 1003.26 1004.56 1006.54 1008.54 1010.11 1011.18 1012.11 1013.08 1014.25 1015.57 1017.01 1018.05 1018.60 1019.19 1019.93 1020.39 1020.98 1021.38 1021.79 1021.77 1021.67 1021.49 1021.46 1021.32 1021.11 1020.83 1020.51
999.29 998.95 997.81 997.97 998.86 999.21 999.09 999.51 999.90 1000.10 1000.79 1001.36 1001.98 1003.62 1003.78 1001.96 1003.12 1003.65 1004.51 1006.05 1007.79 1009.73 1010.64 1011.73 1013.26 1014.62 1015.81 1017.15 1018.11 1018.46 1018.95 1019.60 1020.16 1020.80 1021.24 1021.50 1021.70 1021.59 1021.49 1021.45 1021.30 1021.22 1020.93 1020.56
999.23 999.29 997.88 997.07 997.88 998.55 998.81 999.03 999.47 999.83 1000.96 1001.90 1002.50 1003.76 1003.49 1002.24 1002.69 1003.68 1004.90 1006.32 1007.72 1009.01 1010.46 1012.19 1013.60 1014.95 1015.91 1016.91 1017.77 1018.57 1018.93 1019.42 1020.06 1020.92 1021.16 1021.49 1021.57 1021.60 1021.43 1021.46 1021.37 1021.25 1021.08 1020.71
998.73 998.76 998.09 997.26 997.20 998.06 998.51 998.69 999.12 999.76 1000.60 1002.03 1002.67 1002.78 1002.01 1002.31 1002.86 1003.97 1005.11 1006.37 1007.72 1009.14 1010.79 1012.39 1013.70 1014.94 1015.93 1016.62 1017.59 1018.48 1019.05 1019.41 1020.05 1020.82 1021.27 1021.61 1021.65 1021.61 1021.49 1021.36 1021.26 1021.14 1021.10 1020.81
998.33 998.71 998.58 997.80 997.25 997.46 997.95 998.63 998.91 999.69 1000.61 1002.08 1001.76 1002.39 1002.59 1002.53 1002.90 1004.15 1005.24 1006.51 1007.90 1009.32 1010.87 1012.20 1013.59 1014.84 1015.84 1016.88 1017.65 1018.53 1018.95 1019.42 1019.98 1020.77 1021.28 1021.72 1021.77 1021.79 1021.66 1021.47 1021.38 1021.20 1021.02 1020.79
997.97 998.54 998.65 997.58 997.10 997.53 997.58 998.16 998.41 998.69 999.69 1000.11 1000.90 1001.92 1002.97 1002.78 1003.26 1004.10 1005.23 1006.54 1007.88 1009.30 1010.89 1012.11 1013.46 1014.79 1015.97 1017.00 1017.74 1018.40 1019.01 1019.43 1020.13 1020.67 1021.00 1021.37 1021.66 1021.92 1021.84 1021.65 1021.42 1021.20 1020.99 1020.71
997.93 998.53 998.68 997.92 997.72 997.38 996.66 997.21 997.79 997.97 998.55 999.19 999.89 1000.45 1001.32 1002.38 1003.28 1004.18 1005.31 1006.78 1008.03 1009.36 1010.92 1012.20 1013.66 1015.00 1016.16 1017.05 1017.82 1018.46 1019.11 1019.61 1020.34 1020.85 1021.23 1021.40 1021.44 1021.68 1021.79 1021.68 1021.40 1021.16 1021.01 1021.00
997.85 998.48 998.84 998.33 997.44 997.62 997.33 997.81 996.99 997.37 998.07 998.47 999.43 1000.28 1001.25 1002.22 1003.15 1004.23 1005.45 1006.99 1008.20 1009.50 1010.95 1012.38 1013.69 1015.09 1016.14 1017.02 1017.79 1018.47 1018.97 1019.46 1020.29 1020.95 1021.04 1021.19 1021.37 1021.36 1021.46 1021.39 1021.21 1021.01 1021.05 1021.07
997.96 998.66 998.97 998.48 997.89 997.77 997.38 996.91 996.77 997.16 997.68 998.38 999.31 1000.70 1001.78 1002.76 1003.34 1004.16 1005.45 1006.95 1008.17 1009.50 1010.92 1012.42 1013.71 1015.03 1016.10 1016.95 1017.60 1018.41 1018.87 1019.28 1020.08 1020.46 1020.81 1020.85 1021.06 1021.04 1021.10 1021.01 1020.90 1020.87 1020.94 1020.92
998.01 998.67 999.10 998.66 998.82 999.77 1000.33 998.07 997.63 997.61 997.93 998.30 999.10 1000.01 1001.16 1002.58 1003.61 1004.37 1005.33 1006.79 1008.08 1009.46 1010.98 1012.53 1013.92 1015.15 1016.24 1017.07 1017.83 1018.46 1018.91 1019.16 1019.53 1020.07 1020.39 1020.47 1020.66 1020.80 1020.88 1020.64 1020.57 1020.68 1020.84 1020.79
997.74 998.53 998.94 999.03 1000.44 1001.99 1002.08 1001.35 998.46 998.19 998.52 998.77 999.16 999.97 1001.27 1002.60 1003.82 1004.61 1005.29 1006.72 1008.19 1009.62 1011.18 1012.71 1014.02 1015.30 1016.45 1017.29 1018.01 1018.55 1018.96 1019.13 1019.26 1019.63 1020.06 1020.24 1020.39 1020.56 1020.56 1020.62 1020.57 1020.59 1020.65 1020.65
997.95 998.50 998.89 999.19 999.69 1002.08 1000.51 999.93 999.14 998.83 998.82 998.88 998.90 999.96 1001.41 1003.00 1003.99 1004.33 1005.55 1007.01 1008.50 1009.98 1011.53 1012.93 1014.26 1015.58 1016.63 1017.41 1018.01 1018.41 1018.60 1018.72 1018.89 1019.16 1019.88 1020.14 1020.29 1020.45 1020.59 1020.53 1020.55 1020.45 1020.46 1020.46
997.96 998.35 998.78 999.10 999.71 999.86 999.52 999.41 999.61 999.72 999.95 999.28 999.06 1000.25 1001.81 1003.49 1004.64 1005.06 1006.35 1007.80 1009.16 1010.69 1012.05 1013.33 1014.64 1015.76 1016.84 1017.70 1018.11 1018.26 1018.31 1018.40 1018.55 1019.03 1019.54 1020.04 1020.34 1020.53 1020.53 1020.46 1020.47 1020.32 1020.30 1020.29
998.18 998.42 998.59 999.64 1000.81 1001.19 999.89 999.66 1000.06 1000.23 999.93 999.69 1000.26 1001.25 1002.96 1004.52 1005.57 1006.44 1007.55 1008.71 1009.88 1011.28 1012.56 1013.66 1014.78 1015.96 1016.97 1017.59 1017.84 1018.15 1018.61 1018.67 1018.75 1019.25 1019.57 1019.94 1020.14 1020.30 1020.38 1020.33 1020.33 1020.13 1020.09 1020.10
999.11 997.89 999.28 1001.23 1003.04 1002.39 1002.08 1000.65 1000.67 1000.49 1000.45 1000.71 1001.22 1002.18 1003.65 1005.11 1006.22 1007.34 1008.53 1009.55 1010.67 1011.83 1012.92 1013.80 1014.77 1015.97 1016.92 1017.50 1017.85 1018.45 1018.87 1019.08 1018.97 1019.39 1019.92 1020.11 1020.29 1020.29 1020.20 1020.16 1020.16 1020.18 1020.13 1019.92
999.93 998.38 999.65 1001.22 1002.10 1001.40 1002.18 1001.43 1001.18 1001.00 1001.26 1001.47 1002.11 1003.12 1004.37 1005.59 1006.87 1008.15 1009.23 1010.22 1011.27 1012.34 1013.19 1013.97 1014.85 1016.01 1017.07 1017.65 1017.95 1018.50 1018.82 1019.14 1019.30 1019.57 1019.82 1020.09 1020.17 1020.21 1020.13 1020.04 1020.01 1020.02 1019.92 1019.80
1001.92 998.83 999.56 999.68 999.95 1000.11 1000.78 1001.38 1001.47 1001.80 1002.04 1002.30 1003.01 1003.90 1005.17 1006.37 1007.57 1008.69 1009.69 1010.65 1011.66 1012.57 1013.29 1013.95 1014.75 1015.90 1016.99 1017.64 1018.03 1018.45 1018.74 1019.17 1019.35 1019.59 1019.79 1019.92 1019.85 1019.95 1019.80 1019.78 1019.74 1019.49 1019.62 1019.89
1002.38 1000.77 999.29 999.12 999.45 999.69 1000.43 1001.24 1001.93 1002.38 1002.69 1003.20 1003.91 1004.83 1005.90 1006.85 1007.87 1008.87 1010.01 1011.05 1011.92 1012.75 1013.43 1014.16 1014.93 1016.07 1016.89 1017.26 1017.98 1018.40 1018.67 1018.99 1019.37 1019.62 1019.67 1019.60 1019.48 1019.35 1019.44 1019.38 1019.42 1019.41 1019.63 1019.90
Wind_Speed
17 14 15 19 17 19 11 6 17 24 29 35 5 8 20 19 16 16 17 16 14 16 15 14 14 10 9 8 8 8 9 8 7 6 6 6 5 4 5 7 9 7 7 6
14 18 19 20 18 18 21 19 14 5 12 6 5 12 16 22 20 18 16 16 18 17 16 18 14 11 9 6 7 8 8 8 7 6 4 4 2 5 6 6 7 7 8 6
19 19 20 22 20 19 17 18 12 19 10 8 9 15 14 23 21 17 15 14 19 19 17 18 14 12 11 8 7 7 7 7 7 9 4 6 4 6 7 6 6 4 8 6
20 21 24 23 23 20 17 16 13 19 18 13 5 13 18 19 18 19 18 16 18 18 16 15 14 13 10 10 7 8 7 7 7 8 7 7 5 6 5 5 4 4 5 5
20 22 20 20 23 16 15 14 18 17 17 19 15 11 7 15 18 20 18 18 20 19 17 17 15 13 11 10 9 8 7 6 5 7 6 7 7 5 3 3 4 2 4 3
17 13 19 8 13 10 16 18 14 12 16 14 9 3 7 10 21 19 19 20 22 21 17 16 14 12 11 10 12 9 8 5 5 5 8 5 6 5 5 5 5 5 3 5
17 20 4 5 13 19 19 13 9 12 10 3 2 9 7 30 16 21 19 24 23 21 19 16 15 12 10 8 11 10 8 7 4 8 6 6 6 5 5 6 6 7 6 6
15 14 18 14 18 17 12 15 11 9 9 13 18 9 6 13 5 15 18 24 24 21 18 19 16 13 11 10 6 10 9 7 7 7 7 5 6 4 4 6 5 5 5 6
13 19 17 20 17 16 16 18 18 16 16 16 5 4 5 17 5 14 24 23 23 20 18 16 15 13 12 10 7 6 9 7 7 7 6 4 4 4 5 6 5 4 5 6
19 15 19 19 16 18 20 13 11 7 16 13 12 6 7 20 12 11 21 20 16 21 17 16 13 11 10 11 7 7 8 7 9 7 5 5 4 4 5 5 6 7 6 6
21 14 20 20 14 16 14 13 12 10 4 11 5 5 6 4 13 11 17 16 17 16 16 14 13 11 11 13 11 8 7 7 9 7 5 4 5 5 4 4 5 5 7 6
21 7 13 12 20 18 17 11 15 10 7 11 14 6 6 6 9 12 14 17 16 15 16 14 14 12 9 8 10 7 4 6 10 6 5 4 3 4 5 4 6 6 5 6
14 9 9 16 10 12 14 13 12 6 4 12 11 5 1 3 11 12 16 17 15 15 16 15 14 12 11 8 8 9 7 6 9 7 5 4 3 3 5 5 4 4 4 5
12 10 11 13 12 9 20 17 16 10 7 7 4 11 5 5 9 11 16 18 17 14 15 13 12 10 9 9 8 8 6 6 8 5 5 2 3 2 3 3 3 3 4 5
12 11 15 19 18 14 17 17 20 18 10 6 5 2 17 12 11 11 14 15 16 16 15 13 11 10 9 8 8 7 7 6 8 5 3 2 1 2 1 2 4 4 4 6
10 8 13 19 14 15 9 13 6 4 8 5 4 9 13 11 13 13 15 15 16 15 14 13 13 12 11 10 8 8 7 7 8 4 2 2 3 3 2 5 4 5 5 5
8 9 11 17 19 13 12 13 12 7 2 1 3 11 11 6 10 12 14 14 15 14 14 13 11 10 9 8 7 7 6 6 9 4 2 4 5 3 3 5 3 5 4 5
12 12 10 11 7 3 18 10 10 7 4 7 1 10 9 10 6 10 14 14 13 13 13 12 10 9 9 8 7 6 6 6 9 5 3 3 4 1 3 5 4 5 5 5
14 11 11 6 3 6 8 17 9 2 8 5 9 12 12 11 8 6 10 13 11 12 11 11 10 10 9 9 7 7 6 6 5 8 4 2 3 1 4 4 4 4 4 4
9 10 10 10 9 13 12 21 2 4 7 6 9 13 15 11 8 9 13 14 14 13 12 11 12 11 9 8 7 6 6 6 5 5 4 1 2 1 5 4 4 5 4 4
11 9 13 9 5 3 6 7 4 5 1 8 8 13 13 7 5 13 15 12 15 13 14 13 12 10 9 7 5 6 5 4 3 5 6 2 2 4 5 4 5 3 4 4
14 11 9 8 8 5 3 8 4 3 0 7 7 12 15 14 13 14 14 15 15 15 15 14 11 10 9 8 7 5 4 3 2 7 4 1 3 2 3 5 5 5 4 2
15 13 6 5 3 12 15 9 6 5 5 5 9 11 16 13 13 13 12 13 13 14 12 12 11 11 9 6 8 6 4 0 1 6 3 1 2 3 4 4 4 4 6 4
13 11 8 7 9 14 19 5 3 3 6 5 11 10 14 13 13 13 12 12 12 12 10 10 12 11 10 6 4 10 5 3 3 5 2 1 2 4 3 2 0 1 2 4
19 7 11 7 13 15 12 7 7 7 7 8 10 12 12 15 14 14 11 12 12 11 10 9 9 11 10 8 5 7 4 3 2 2 1 3 3 4 3 4 4 3 1 3
8 4 3 7 12 8 12 11 8 8 8 9 13 12 13 14 12 13 11 10 11 10 9 7 9 10 9 5 9 7 5 4 4 3 3 2 3 4 3 3 3 8 0 5
Wind_Direction
202 208 212 210 231 248 281 238 207 186 199 233 197 211 161 165 199 210 186 186 170 151 141 132 115 107 95 81 76 49 58 30 2 43 25 9 11 61 42 63 70 30 20 14
188 218 224 234 225 246 272 278 265 104 146 202 259 238 187 170 191 210 198 193 159 155 149 129 133 127 101 104 90 71 52 52 30 9 47 338 351 67 46 66 56 33 7 13
224 213 227 247 238 231 245 265 282 278 153 207 251 262 251 178 174 201 213 185 162 161 154 137 147 142 127 109 84 75 60 67 44 350 28 350 33 53 39 27 32 15 14 8
235 235 205 232 251 238 243 248 251 273 288 276 287 256 267 165 174 190 207 169 168 160 150 141 146 136 135 121 109 85 72 42 68 21 32 43 21 44 47 8 12 355 4 345
224 224 239 228 238 241 257 265 266 264 258 267 260 268 12 177 188 193 202 186 167 157 161 152 144 148 148 140 122 104 88 72 64 81 57 30 21 15 74 3 333 37 329 305
254 225 239 239 291 278 265 253 252 276 274 265 345 63 290 220 198 191 192 155 157 164 146 145 139 147 153 159 132 117 111 96 83 83 71 62 37 24 8 351 351 6 341 331
230 249 179 223 236 249 249 247 246 243 243 281 271 315 232 259 189 187 184 152 151 149 147 141 153 168 170 129 121 129 119 115 110 87 76 34 30 41 16 354 12 338 355 337
219 214 234 182 238 233 234 236 245 239 231 240 192 242 183 182 123 162 163 139 141 150 150 159 167 164 163 122 112 130 136 120 112 83 66 62 32 21 9 22 355 346 2 335
235 231 244 206 214 229 218 235 238 259 269 283 146 274 62 24 329 139 139 147 155 151 156 164 166 143 123 122 127 119 113 116 101 94 97 78 33 29 360 18 353 351 349 350
252 270 267 182 204 225 241 212 251 248 266 293 333 9 296 203 177 168 142 148 153 152 158 142 135 128 132 121 128 129 128 124 108 95 71 66 56 4 10 10 15 5 2 5
237 258 279 175 192 213 231 245 245 259 172 257 246 142 261 322 149 167 148 152 161 151 138 139 142 141 146 160 144 147 142 143 118 100 85 59 44 359 17 26 360 18 357 355
214 241 259 242 197 197 240 259 241 255 279 25 306 34 8 36 136 150 148 160 156 146 144 157 146 147 145 139 126 113 117 137 106 102 84 76 57 351 360 17 9 28 347 336
193 230 257 265 178 212 222 245 272 119 78 294 288 122 107 122 137 160 161 161 143 149 154 162 151 158 142 136 139 145 159 113 106 103 106 68 27 0 345 37 20 5 345 347
183 207 233 256 185 288 207 225 250 257 212 243 83 51 270 199 147 170 165 153 159 158 158 161 152 142 138 142 152 146 135 127 106 110 112 133 54 350 310 18 344 347 337 339
191 229 228 253 263 271 273 205 224 244 242 251 299 345 195 155 159 170 151 153 157 162 165 151 146 140 133 140 147 143 141 128 104 102 124 93 199 228 316 313 328 314 12 16
181 203 247 259 244 252 165 248 226 234 274 304 316 48 100 126 143 160 154 166 167 172 170 154 151 151 155 154 161 154 148 136 122 147 195 167 226 174 212 280 295 332 40 6
200 200 241 244 256 226 239 224 214 210 247 342 331 102 116 135 153 162 159 174 171 175 166 155 154 152 142 144 140 140 151 135 132 168 210 215 190 179 210 284 333 341 12 8
212 202 248 251 55 282 348 26 26 15 346 3 105 139 120 131 157 169 165 170 172 163 153 149 147 137 133 129 134 147 159 160 152 158 216 206 176 174 282 274 29 351 338 356
188 209 235 257 61 18 321 321 342 339 300 310 272 124 121 125 139 164 164 153 152 140 138 135 138 133 129 131 145 152 166 184 203 160 179 270 151 219 279 320 358 331 331 324
202 229 245 260 220 180 203 221 359 343 250 317 239 131 128 143 187 179 148 139 135 132 125 130 127 128 136 135 142 165 189 187 202 122 153 106 41 275 309 344 335 330 330 327
185 212 221 232 230 276 119 120 143 192 156 32 67 122 130 132 53 110 118 122 123 122 126 124 129 135 127 128 159 193 190 183 163 142 110 126 355 358 329 322 305 308 360 340
194 199 199 212 200 231 128 143 190 86 6 87 100 115 102 116 121 116 120 120 129 133 132 140 142 131 135 153 178 120 77 10 140 96 101 86 343 299 306 301 326 315 293 354
264 201 120 96 138 297 309 68 87 77 82 95 124 125 122 131 133 130 126 132 137 137 145 146 144 135 137 170 137 138 129 236 278 108 123 313 319 304 279 281 298 336 337 343
259 141 102 138 198 178 244 125 113 121 114 117 122 135 127 135 134 131 134 133 140 139 151 149 142 144 128 145 153 135 150 153 304 119 135 302 290 285 295 307 24 319 302 336
288 176 152 125 180 179 146 157 136 110 124 117 124 120 131 136 144 140 142 140 142 146 153 150 152 147 145 170 156 134 137 137 175 138 204 247 235 231 268 248 261 321 133 53
333 357 36 57 121 93 129 122 135 141 128 128 123 131 139 141 146 140 138 141 142 149 144 141 111 130 160 152 135 153 162 133 129 214 233 251 259 242 271 254 195 257 117 137